Home > Weather > Chichester > Past weeks

Flag for United Kingdom Past Weather in Chichester, England, United Kingdom — Yesterday and Last 2 Weeks

Now
70 °F

Mild.


Feels Like: 69 °F
Forecast: 62 / 76 °F
Wind: 7 mph from Northeast

Location: Thorney Island

Current Time: Aug 25, 2016 at 2:10:00 AM

Latest Report: Aug 25, 2016 at 1:00 AM


Visibility: 17 mi

Pressure: 29.99 "Hg

Humidity: 85%

Dew Point: 66 °F

Location of ChichesterLocation

Past Weather in Chichester — Graph

°F

Chichester Temperature Yesterday

Maximum temperature yesterday: 79 °F (at 11:00 AM)
Minimum temperature yesterday: 62 °F (at 4:00 AM)
Average temperature yesterday: 70 °F

High & Low Weather Summary for the Past Weeks

 TemperatureHumidityPressure
High79 °F (Aug 23, 2:00 PM)100% (Aug 23, 5:00 AM)30.29 "Hg (Aug 23, 5:00 AM)
Low51 °F (Aug 10, 2:00 AM)47% (Aug 10, 3:00 PM)29.68 "Hg (Aug 19, 5:00 PM)
Average64 °F79%30.08 "Hg
* Reported Aug 10 1:00 AM — Aug 25 1:00 AM, Chichester, Weather by CustomWeather, © 2016

Note: Actual official high and low records may vary slightly from our data, if they occured in-between our weather recording intervals... More about our weather records

Advertising

Chichester Weather History for the Previous 24 Hours

Scroll right to see more
 ConditionsComfort  
Time TempWeatherWind HumidityBarometerVisibility
1:00 AM
Thu, Aug 25
70 °FMild.7 mph85%29.99 "Hg17 mi
12:00 AM71 °FMild.9 mph84%29.98 "Hg19 mi
11:00 PM
Wed, Aug 24
70 °FMild.7 mph87%30.00 "Hg18 mi
10:00 PM71 °FMild.6 mph91%30.04 "Hg13 mi
8:00 PM72 °FLots of rain. Cloudy.6 mph86%30.04 "Hg2 mi
7:00 PM74 °FMild.2 mph75%30.03 "Hg17 mi
6:00 PM75 °FMild.5 mph71%30.03 "Hg19 mi
5:00 PM75 °FMild.16 mph74%30.08 "Hg17 mi
4:00 PM74 °FMild.9 mph73%30.04 "Hg16 mi
3:00 PM75 °FMild.12 mph71%30.04 "Hg22 mi
2:00 PM76 °FMild.10 mph68%30.04 "Hg28 mi
1:00 PM77 °FMild.8 mph72%30.04 "Hg16 mi
11:00 AM79 °FWarm.5 mph62%30.05 "Hg25 mi
10:00 AM76 °FMild.3 mph67%30.05 "Hg18 mi
9:00 AM71 °FMild.6 mph77%30.05 "Hg25 mi
8:00 AM67 °FMild.6 mph84%30.06 "Hg19 mi
7:00 AM64 °FMild.3 mph90%30.05 "Hg19 mi
6:00 AM62 °FCool.6 mph90%30.03 "Hg17 mi
5:00 AM64 °FMild.5 mph90%30.04 "Hg31 mi
4:00 AM62 °FCool.5 mph91%30.04 "Hg25 mi
3:00 AM63 °FMild.3 mph87%30.05 "Hg31 mi
2:00 AM64 °FMild.5 mph87%30.06 "Hg28 mi
Weather by CustomWeather, © 2016

See weather overviewHow to use our weather pages